Change the Weather History Date:

Tuesday, August 20, 2013

  Actual Average Record
Temperature  
Mean Temperature 66 °F -  
Max Temperature 81 °F 79 °F 91 °F (2006)
Min Temperature 50 °F 54 °F 46 °F (2011)
Growing Degree Days 16 (Base 50)    
Moisture  
Dew Point 36 °F    
Average Humidity 34    
Maximum Humidity 73    
Minimum Humidity 16    
Precipitation  
Precipitation 0.00 in - - ()
Sea Level Pressure  
Sea Level Pressure 30.02 in    
Wind  
Wind Speed 8 mph (SW)    
Max Wind Speed 13 mph    
Max Gust Speed 17 mph    
Visibility 10 miles    
Events      
Averages and records for this station are not official NWS values.
T = Trace of Precipitation, MM = Missing Value Source: NWS Daily Summary

Daily Weather History Graph

Daily Weather History Graph

Search for Another Location

Airport or City:

Trip Planner

Search our weather history database for the weather conditions in past years. The results will help you decide how hot, cold, wet, or windy it might be!

Date:

Astronomy

Aug. 20, 2013 Rise Set
Actual Time 5:53 AM PDT 7:53 PM PDT
Civil Twilight 5:20 AM PDT 8:26 PM PDT
Nautical Twilight 4:39 AM PDT 9:07 PM PDT
Astronomical Twilight 3:53 AM PDT 9:52 PM PDT
Moon 7:22 PM PDT (8/20) 5:31 AM PDT (8/20)
Length of Visible Light 15h 06m
Length of Day
13h 59m
Full, 100% of the Moon is Illuminated
Aug 20
Full
Aug 20
Full
Aug 28
Last Quarter
Sep 5
New
Sep 12
First Quarter

Hourly Weather History & Observations

Time (PDT) Temp. Dew Point Humidity Pressure Visibility Wind Dir Wind Speed Gust Speed Precip Events Conditions
12:58 AM 59.7 °F 43.5 °F 55% 29.95 in 10.0 mi SW 8.1 mph - N/A   Clear
1:58 AM 58.8 °F 41.7 °F 53% 29.95 in 10.0 mi SW 9.2 mph - N/A   Clear
2:58 AM 56.5 °F 41.4 °F 57% 29.96 in 10.0 mi SW 9.2 mph - N/A   Clear
3:58 AM 53.6 °F 42.6 °F 66% 29.97 in 10.0 mi South 6.9 mph - N/A   Clear
4:58 AM 52.3 °F 42.8 °F 70% 29.99 in 10.0 mi South 10.4 mph - N/A   Clear
5:58 AM 50.2 °F 41.9 °F 73% 30.00 in 10.0 mi South 8.1 mph - N/A   Clear
6:58 AM 56.1 °F 41.5 °F 58% 30.01 in 10.0 mi South 4.6 mph - N/A   Clear
7:58 AM 60.6 °F 41.5 °F 49% 30.04 in 10.0 mi South 6.9 mph - N/A   Clear
8:58 AM 63.7 °F 42.4 °F 46% 30.05 in 10.0 mi South 3.5 mph - N/A   Clear
9:58 AM 67.1 °F 42.3 °F 40% 30.06 in 10.0 mi SW 5.8 mph - N/A   Clear
10:58 AM 71.2 °F 41.4 °F 34% 30.06 in 10.0 mi South 5.8 mph - N/A   Clear
11:58 AM 75.6 °F 38.3 °F 26% 30.06 in 10.0 mi South 8.1 mph - N/A   Clear
12:58 PM 77.2 °F 36.9 °F 23% 30.05 in 10.0 mi WSW 11.5 mph - N/A   Clear
1:31 PM 78.8 °F 33.8 °F 20% 30.06 in 10.0 mi SSW 11.5 mph - N/A   Light Drizzle
1:34 PM 78.8 °F 33.8 °F 20% 30.06 in 10.0 mi SSW 5.8 mph - N/A   Clear
1:52 PM 78.8 °F 32.0 °F 18% 30.06 in 10.0 mi SW 12.7 mph - N/A   Clear
1:57 PM 78.8 °F 32.0 °F 18% 30.06 in 10.0 mi SW 10.4 mph - N/A   Light Drizzle
1:58 PM 78.8 °F 32.5 °F 19% 30.03 in 10.0 mi SW 9.2 mph - 0.00 in   Light Drizzle
1:59 PM 78.8 °F 32.0 °F 18% 30.06 in 10.0 mi Variable 5.8 mph - N/A   Clear
2:58 PM 80.6 °F 33.1 °F 18% 30.01 in 10.0 mi West 10.4 mph 17.3 mph 0.00 in   Clear
3:58 PM 81.3 °F 33.4 °F 18% 30.01 in 10.0 mi WSW 8.1 mph - N/A   Clear
4:58 PM 81.5 °F 31.6 °F 16% 29.99 in 10.0 mi Variable 4.6 mph - N/A   Clear
5:58 PM 80.6 °F 31.5 °F 17% 29.99 in 10.0 mi SW 8.1 mph - N/A   Clear
6:58 PM 78.4 °F 28.0 °F 16% 29.99 in 10.0 mi West 8.1 mph - N/A   Clear
7:58 PM 72.1 °F 28.2 °F 20% 30.00 in 10.0 mi West 5.8 mph - N/A   Clear
8:58 PM 67.1 °F 28.6 °F 24% 30.01 in 10.0 mi WSW 6.9 mph - N/A   Clear
9:58 PM 65.7 °F 28.2 °F 24% 30.01 in 10.0 mi SW 4.6 mph - N/A   Clear
10:58 PM 61.2 °F 28.9 °F 30% 30.03 in 10.0 mi SW 4.6 mph - N/A   Clear
11:58 PM 59.0 °F 31.1 °F 35% 30.03 in 10.0 mi WSW 3.5 mph - N/A   Clear